sat.trackr.live / text

‹ back to catalog

STARLINK-37495

NORAD 68841 · 2026-094C

PAYLOAD ACTIVE UNKNOWN

§ Identity

Operator
Country
US
Launch date
2026-04-26
Launch site
AFWTR
Launch vehicle
Mass (kg)
RCS (m²)

Purposes: comms

External: N2YO · Heavens-Above · Gunter

§ Orbital elements

Epoch: 2026-09-19T23:24:39.049344Z

Period
93.91 min
Inclination
97.2844°
Eccentricity
0.0002087
Mean motion
15.33458361 rev/d
Perigee alt
464.1 km
Apogee alt
466.9 km
Semi-major
6,843.6 km
B*
4.7585e-4
RAAN
276.0514°
Arg perigee
88.9955°
Mean anomaly
271.1526°
Rev number
2,257

§ Raw data

STARLINK-374951 68841U 26094C   26262.97545196  .00015325  00000+0  47585-3 0  99992 68841  97.2844 276.0514 0002087  88.9955 271.1526 15.33458361 22578

JSON: /api/v1/satellites/68841 · /tle

For live sub-satellite position, see the globe view (requires WebGL).

§ Visibility from observer

Set your observer location to see the next 7 days of passes ≥ 10°. The values pass through the URL so the page stays shareable.

No JS? Fill the form by hand. The geolocation button needs JavaScript.